• Join FlightAware (Why Join?)
  • Login
  • US Flag 
11:44PM EDT


 

Airport Tracker/Info


-or-


 

Live Flight TrackerFlight Track Log ✈ AFL150 ✈ 20-Jul-2014 ✈ UUEE / SVO - MUHA / HAV

Flight Track Log - Related Links

Times and Time Zones

All times are in EDT time to prevent confusion due to time zone crossing. See the AFL150 flight status page for this flight to view local times or setup timezone preferences in your user account.

Time Position Orientation Groundspeed Altitude Reporting Facility
EDT Latitude Longitude Course Direction KTS MPH feet Rate Location/Type
06:41AM 56.0256 37.7353 45° Northeast 269 310 5,800  Level FlightAware ADS-B (UUWV / MOW)
06:41AM 56.0432 37.7509 18° North 265 305 6,500 2,460 Climbing FlightAware ADS-B (UUWV / MOW)
06:41AM 56.0612 37.7506 North 264 304 7,100 1,980 Climbing FlightAware ADS-B (UUWV / MOW)
06:42AM 56.0770 37.7362 329° Northwest 271 312 7,500 1,800 Climbing FlightAware ADS-B (UUWV / MOW)
06:42AM 56.0857 37.7149 289° West 283 326 7,900 3,000 Climbing FlightAware ADS-B (UUWV / MOW)
06:42AM 56.0890 37.6927 278° West 286 329 8,500 2,220 Climbing FlightAware ADS-B (UUWV / MOW)
06:42AM 56.0902 37.6531 274° West 291 335 9,100 1,860 Climbing FlightAware ADS-B (UUWV / MOW)
06:43AM 56.0960 37.5316 275° West 296 341 10,600 1,680 Climbing FlightAware ADS-B (UUWV / MOW)
06:44AM 56.1016 37.4051 274° West 341 392 11,700 1,440 Climbing FlightAware ADS-B (UUWV / MOW)
06:44AM 56.1047 37.3351 274° West 359 413 12,500 1,560 Climbing FlightAware ADS-B (UUWV / MOW)
06:45AM 56.1091 37.2258 274° West 373 429 13,300 1,620 Climbing FlightAware ADS-B (UUWV / MOW)
06:45AM 56.1122 37.1325 273° West 386 444 14,200 2,100 Climbing FlightAware ADS-B (UUWV / MOW)
06:46AM 56.1168 36.9926 273° West 391 450 15,900 1,920 Climbing FlightAware ADS-B (UUWV / MOW)
06:48AM 56.1296 36.5912 273° West 414 476 19,600 1,860 Climbing FlightAware ADS-B (UUWV / MOW)
06:49AM 56.1337 36.4471 273° West 419 482 21,000 1,680 Climbing FlightAware ADS-B (UUWV / MOW)
06:49AM 56.1369 36.3364 273° West 425 489 21,700 660 Climbing FlightAware ADS-B (UUWV / MOW)
07:07AM 56.4649 32.1849 279° West 470 541 34,000 600 Climbing FlightAware ADS-B (EVDA / DGP)
07:09AM 56.4876 31.9125 278° West 470 541 34,000  Level FlightAware ADS-B (EVDA / DGP)
07:10AM 56.5063 31.6821 278° West 466 536 34,000  Level FlightAware ADS-B (EVDA / DGP)
07:11AM 56.5249 31.4455 278° West 463 533 34,000  Level FlightAware ADS-B (EVDA / DGP)
07:11AM 56.5374 31.3089 287° West 469 540 34,000  Level FlightAware ADS-B (EVDA / DGP)
07:12AM 56.5607 31.1634 289° West 470 541 34,000  Level FlightAware ADS-B (EVDA / DGP)
07:13AM 56.6024 30.9956 299° West 470 541 34,000  Level FlightAware ADS-B (EVDA / DGP)
07:14AM 56.6802 30.7933 310° West 470 541 34,000  Level FlightAware ADS-B (EVDA / DGP)
07:15AM 56.7563 30.6064 298° West 467 537 34,000  Level FlightAware ADS-B (EVDA / DGP)
07:16AM 56.7876 30.4121 280° West 465 535 34,000  Level FlightAware ADS-B (EVDA / DGP)
07:17AM 56.8124 30.1505 282° West 464 534 34,000  Level FlightAware ADS-B (EVDA / DGP)
07:18AM 56.8679 29.9389 308° West 466 536 34,000  Level FlightAware ADS-B (EVDA / DGP)
07:18AM 56.9086 29.8469 309° West 466 536 34,000  Level FlightAware ADS-B (EVDA / DGP)
07:19AM 56.9510 29.7500 307° West 467 537 34,000  Level FlightAware ADS-B (EVDA / DGP)
07:19AM 57.0027 29.6221 307° West 469 540 34,000  Level FlightAware ADS-B (EVDA / DGP)
07:20AM 57.0807 29.4337 307° West 477 549 34,000  Level FlightAware ADS-B (EVDA / DGP)
07:21AM 57.1606 29.2409 307° West 479 551 34,000  Level FlightAware ADS-B (EVDA / DGP)
07:22AM 57.2405 29.0461 307° West 479 551 34,000  Level FlightAware ADS-B (EVDA / DGP)
07:23AM 57.2803 28.9485 307° West 476 548 34,000  Level FlightAware ADS-B (EVDA / DGP)
07:24AM 57.3426 28.7952 307° West 474 545 34,000  Level FlightAware ADS-B (EVDA / DGP)
07:25AM 57.4212 28.6004 307° West 472 543 34,000  Level FlightAware ADS-B (EVDA / DGP)
07:26AM 57.4999 28.4036 307° West 473 544 34,000  Level FlightAware ADS-B (EVDA / DGP)
07:27AM 57.5713 28.2237 306° West 473 544 34,000  Level FlightAware ADS-B (EVDA / DGP)
07:28AM 57.6735 27.9637 306° West 472 543 34,000  Level FlightAware ADS-B (EVDA / DGP)
07:29AM 57.7518 27.7628 306° West 473 544 34,000  Level FlightAware ADS-B (EVDA / DGP)
07:30AM 57.8386 27.5333 299° West 471 542 34,000  Level FlightAware ADS-B (EVDA / DGP)
07:31AM 57.8775 27.3372 289° West 475 547 34,000  Level FlightAware ADS-B (EVDA / DGP)
07:32AM 57.9222 27.1072 291° West 483 556 34,000  Level FlightAware ADS-B (EVDA / DGP)
07:33AM 57.9570 26.9333 291° West 484 557 34,000  Level FlightAware ADS-B (EYKS)
07:34AM 58.0205 26.6123 290° West 495 570 34,000  Level FlightAware ADS-B (EVDA / DGP)
07:35AM 58.0703 26.3568 290° West 498 573 34,000  Level FlightAware ADS-B (EVDA / DGP)
07:36AM 58.0942 26.2330 290° West 490 564 34,000  Level FlightAware ADS-B (EYKS)
07:36AM 58.1174 26.1118 290° West 488 562 34,000  Level FlightAware ADS-B (EVDA / DGP)
07:37AM 58.1490 25.9463 290° West 491 565 34,000  Level FlightAware ADS-B (EYKS)
07:37AM 58.1676 25.8481 290° West 492 566 34,000  Level FlightAware ADS-B (EYKS)
07:38AM 58.2046 25.6505 290° West 489 563 34,000  Level FlightAware ADS-B (EYKS)
07:38AM 58.2217 25.5586 289° West 485 558 34,000  Level FlightAware ADS-B (EYKS)
07:39AM 58.2531 25.3890 289° West 485 558 34,000  Level FlightAware ADS-B (EVDA / DGP)
07:40AM 58.2744 25.2727 289° West 486 559 34,000  Level FlightAware ADS-B (EYKS)
07:40AM 58.3103 25.0752 289° West 487 560 34,000  Level FlightAware ADS-B (EYKS)
07:41AM 58.3346 24.9399 289° West 488 562 34,000  Level FlightAware ADS-B (EYKS)
07:41AM 58.3592 24.8022 289° West 489 563 34,000  Level FlightAware ADS-B (EVDA / DGP)
07:42AM 58.3890 24.6349 289° West 487 560 34,000  Level FlightAware ADS-B (EFHN)
07:43AM 58.3917 24.6195 289° West 486 559 34,000  Level FlightAware ADS-B (EYKS)
07:45AM 58.4870 24.0146 286° West 483 556 34,000  Level FlightAware ADS-B (EFHN)
07:48AM 58.5736 23.4266 285° West 484 557 34,000  Level FlightAware ADS-B (EFHN)
07:50AM 58.6576 22.8334 285° West 480 552 34,000  Level FlightAware ADS-B (EFHN)
07:50AM 58.6798 22.6728 285° West 481 554 34,000  Level FlightAware ADS-B (EFHN)
07:51AM 58.7032 22.5025 285° West 481 554 34,000  Level FlightAware ADS-B (EFHN)
07:52AM 58.7339 22.2754 285° West 479 551 34,000  Level FlightAware ADS-B (EFHN)
07:52AM 58.7505 22.1506 284° West 480 552 34,000  Level FlightAware ADS-B (ESKB)
07:53AM 58.7678 22.0206 284° West 483 556 34,000  Level FlightAware ADS-B (EFHN)
07:53AM 58.7870 21.8741 284° West 484 557 34,000  Level FlightAware ADS-B (EFHN)
07:54AM 58.7789 21.9356 284° West 483 556 34,000  Level FlightAware ADS-B (ESKB)
07:55AM 58.8198 21.6217 284° West 483 556 34,000  Level FlightAware ADS-B (EFHN)
07:56AM 58.8475 21.4039 289° West 484 557 34,000  Level FlightAware ADS-B (EFHN)
07:56AM 58.8839 21.1945 289° West 486 559 34,000  Level FlightAware ADS-B (ESKB)
07:57AM 58.9203 20.9810 288° West 487 560 34,000  Level FlightAware ADS-B (ESKB)
07:58AM 58.9554 20.7680 288° West 489 563 34,000  Level FlightAware ADS-B (EFHN)
07:59AM 58.9898 20.5566 287° West 486 559 34,000  Level FlightAware ADS-B (ESKB)
07:59AM 59.0069 20.4505 287° West 487 560 34,000  Level FlightAware ADS-B (ESKB)
08:00AM 59.0429 20.2248 287° West 488 562 34,000  Level FlightAware ADS-B (ESKB)
08:01AM 59.0657 20.0801 287° West 490 564 34,000  Level FlightAware ADS-B (ESKB)
08:01AM 59.0949 19.8930 287° West 493 567 34,000  Level FlightAware ADS-B (ESKB)
08:02AM 59.1221 19.7171 287° West 493 567 34,000  Level FlightAware ADS-B (ESKB)
08:03AM 59.1466 19.5568 287° West 496 571 34,000  Level FlightAware ADS-B (ESKB)
08:03AM 59.1731 19.3817 286° West 494 568 34,000  Level FlightAware ADS-B (ESKB)
08:04AM 59.1979 19.2166 286° West 492 566 34,000  Level FlightAware ADS-B (ESKB)
08:05AM 59.2237 19.0430 286° West 492 566 34,000  Level FlightAware ADS-B (ESKB)
08:05AM 59.2489 18.8719 286° West 487 560 34,000  Level FlightAware ADS-B (ESKB)
08:06AM 59.2731 18.7046 286° West 476 548 34,000  Level FlightAware ADS-B (ESKB)
08:07AM 59.2965 18.5427 286° West 477 549 34,000  Level FlightAware ADS-B (ESKB)
08:07AM 59.3204 18.3743 286° West 474 545 34,000  Level FlightAware ADS-B (ESKB)
08:08AM 59.3436 18.2101 285° West 469 540 34,000  Level FlightAware ADS-B (ESKB)
08:09AM 59.3662 18.0485 285° West 466 536 34,000  Level FlightAware ADS-B (ESKB)
08:09AM 59.3888 17.8846 285° West 463 533 34,000  Level FlightAware ADS-B (ESKB)
08:10AM 59.4118 17.7168 285° West 466 536 34,000  Level FlightAware ADS-B (ESKB)
08:11AM 59.4330 17.5597 285° West 462 532 34,000  Level FlightAware ADS-B (ESKB)
08:11AM 59.4540 17.4030 285° West 463 533 34,000  Level FlightAware ADS-B (ESKB)
08:12AM 59.4762 17.2357 285° West 462 532 34,000  Level FlightAware ADS-B (ESKB)
08:13AM 59.4971 17.0764 285° West 464 534 34,000  Level FlightAware ADS-B (ESKB)
08:13AM 59.5185 16.9115 284° West 465 535 34,000  Level FlightAware ADS-B (ESKB)
08:14AM 59.5400 16.7437 284° West 463 533 34,000  Level FlightAware ADS-B (ESKB)
08:15AM 59.5611 16.5775 284° West 464 534 34,000  Level FlightAware ADS-B (ESKB)
08:15AM 59.5817 16.4131 284° West 460 529 34,000  Level FlightAware ADS-B (ESKB)
08:16AM 59.6012 16.2552 284° West 462 532 34,000  Level FlightAware ADS-B (ESKB)
08:17AM 59.6114 16.1721 284° West 466 536 34,000  Level FlightAware ADS-B (ESKB)
08:17AM 59.6416 15.9239 283° West 463 533 34,000  Level FlightAware ADS-B (ESKB)
08:18AM 59.6609 15.7629 283° West 458 527 34,000  Level FlightAware ADS-B (ESKB)
08:19AM 59.6897 15.5197 282° West 457 526 34,000  Level FlightAware ADS-B (ESSG)
08:19AM 59.7038 15.3985 282° West 459 528 34,000  Level FlightAware ADS-B (ESSG)
08:20AM 59.7184 15.2719 282° West 463 533 34,000  Level FlightAware ADS-B (ESSG)
08:20AM 59.7329 15.1446 282° West 466 536 34,000  Level FlightAware ADS-B (ESSG)
08:21AM 59.7539 14.9598 283° West 464 534 34,000  Level FlightAware ADS-B (ESSG)
08:21AM 59.7681 14.8326 282° West 464 534 34,000  Level FlightAware ADS-B (ESSG)
08:22AM 59.7816 14.7113 282° West 461 531 34,000  Level FlightAware ADS-B (ESSG)
08:22AM 59.7978 14.5870 289° West 458 527 34,000  Level FlightAware ADS-B (ESSG)
08:23AM 59.8259 14.4103 286° West 458 527 34,000  Level FlightAware ADS-B (ESSG)
08:24AM 59.8448 14.2882 287° West 455 524 34,000  Level FlightAware ADS-B (ESSG)
08:24AM 59.8722 14.1118 287° West 449 517 34,000  Level FlightAware ADS-B (ESSG)
08:25AM 59.8906 13.9917 287° West 450 518 34,000  Level FlightAware ADS-B (ESSG)
08:26AM 59.9173 13.8168 287° West 451 519 34,000  Level FlightAware ADS-B (ESSG)
08:26AM 59.9355 13.6956 287° West 448 516 34,000  Level FlightAware ADS-B (ESSG)
08:27AM 59.9614 13.5229 287° West 450 518 34,000  Level FlightAware ADS-B (ESSG)
08:27AM 59.9799 13.3978 286° West 450 518 34,000  Level FlightAware ADS-B (ESSG)
08:28AM 60.0060 13.2204 285° West 447 514 34,000  Level FlightAware ADS-B (ESSG)
08:29AM 60.0236 13.0992 285° West 448 516 34,000  Level FlightAware ADS-B (ESSG)
08:29AM 60.0493 12.9211 285° West 451 519 34,000  Level FlightAware ADS-B (ESSG)
08:30AM 60.0668 12.7991 285° West 452 520 34,000  Level FlightAware ADS-B (ESSG)
08:31AM 60.0922 12.6195 285° West 452 520 34,000  Level FlightAware ADS-B (ESSG)
08:31AM 60.1090 12.5002 285° West 454 522 34,000  Level FlightAware ADS-B (ESSG)
08:32AM 60.1264 12.3744 285° West 446 513 34,000  Level FlightAware ADS-B (ESSG)
08:32AM 60.1433 12.2525 285° West 444 511 34,000  Level FlightAware ADS-B (ESSG)
08:33AM 60.1673 12.0770 285° West 438 504 34,000  Level FlightAware ADS-B (ESSG)
08:33AM 60.1834 11.9576 285° West 437 503 34,000  Level FlightAware ADS-B (ESSG)
08:34AM 60.2067 11.7842 285° West 439 505 34,000  Level FlightAware ADS-B (ESSG)
08:35AM 60.2300 11.6081 285° West 440 506 34,000  Level FlightAware ADS-B (ESSG)
08:35AM 60.2458 11.4878 285° West 440 506 34,000  Level FlightAware ADS-B (ESSG)
08:36AM 60.2612 11.3700 285° West 442 509 34,000  Level FlightAware ADS-B (ESSG)
08:37AM 60.2842 11.1931 285° West 444 511 34,000  Level FlightAware ADS-B (ESSG)
08:37AM 60.2997 11.0715 283° West 441 507 34,000  Level FlightAware ADS-B (ESSG)
08:38AM 60.3225 10.8916 283° West 441 507 34,000  Level FlightAware ADS-B (ESSG)
08:39AM 60.3439 10.7196 283° West 441 507 34,000  Level FlightAware ADS-B (ESSG)
08:40AM 60.3812 10.4170 283° West 438 504 34,000  Level FlightAware ADS-B (ESSG)
08:40AM 60.3959 10.2961 283° West 441 507 34,000 360 Level FlightAware ADS-B (ESSG)
08:41AM 60.4175 10.1156 283° West 438 504 34,500 720 Climbing FlightAware ADS-B (ESSG)
08:42AM 60.4318 9.9954 283° West 441 507 34,900 780 Climbing FlightAware ADS-B (ESSG)
08:42AM 60.4528 9.8170 283° West 440 506 35,500 780 Climbing FlightAware ADS-B (ESSG)
08:43AM 60.4669 9.6954 283° West 438 504 35,900 360 Climbing FlightAware ADS-B (ESSG)
08:44AM 60.4872 9.5193 283° West 440 506 36,000 60 Climbing FlightAware ADS-B (ESSG)
08:44AM 60.5012 9.3960 283° West 441 507 36,000  Level FlightAware ADS-B (ESSG)
08:45AM 60.5152 9.2726 283° West 442 509 36,000  Level FlightAware ADS-B (ESSG)
08:45AM 60.5281 9.1570 283° West 443 510 36,000  Level FlightAware ADS-B (ESSG)
08:46AM 60.5479 8.9776 283° West 442 509 36,000  Level FlightAware ADS-B (ESSG)
08:46AM 60.5616 8.8517 282° West 442 509 36,000  Level FlightAware ADS-B (ESSG)
08:47AM 60.5804 8.6780 282° West 444 511 36,000  Level FlightAware ADS-B (ESSG)
08:48AM 60.5937 8.5540 281° West 443 510 36,000  Level FlightAware ADS-B (ESSG)
08:48AM 60.6076 8.4224 281° West 445 512 36,000  Level FlightAware ADS-B (ESSG)
08:49AM 60.6223 8.2822 281° West 447 514 36,000  Level FlightAware ADS-B (ESSG)
08:49AM 60.6391 8.1196 281° West 447 514 36,000  Level FlightAware ADS-B (ESSG)
08:50AM 60.6648 7.8673 281° West 451 519 36,000  Level FlightAware ADS-B (ESSG)
08:53AM 60.7136 7.3889 282° West  Level Estimated
08:54AM 60.7364 7.1587 282° West  Level Estimated
08:55AM 60.7588 6.9282 281° West  Level Estimated
08:56AM 60.7808 6.6974 281° West  Level Estimated
08:57AM 60.8024 6.4663 281° West  Level Estimated
08:58AM 60.8236 6.2349 281° West  Level Estimated
08:59AM 60.8445 6.0032 281° West  Level Estimated
09:00AM 60.8649 5.7712 280° West  Level Estimated
09:01AM 60.8849 5.5388 280° West  Level Estimated
09:02AM 60.9045 5.3062 280° West  Level Estimated
09:03AM 60.9237 5.0733 280° West  Level Estimated
09:04AM 60.9426 4.8402 280° West  Level Estimated
09:05AM 60.9610 4.6067 279° West  Level Estimated
09:06AM 60.9790 4.3730 279° West  Level Estimated
09:07AM 60.9966 4.1391 279° West  Level Estimated
09:08AM 61.0138 3.9048 279° West  Level Estimated
09:09AM 61.0306 3.6704 279° West  Level Estimated
09:10AM 61.0470 3.4356 278° West  Level Estimated
09:11AM 61.0630 3.2007 278° West  Level Estimated
09:12AM 61.0785 2.9655 278° West  Level Estimated
09:13AM 61.0937 2.7300 278° West  Level Estimated
09:14AM 61.1084 2.4944 277° West  Level Estimated
09:15AM 61.1228 2.2585 277° West  Level Estimated
09:16AM 61.1367 2.0224 277° West  Level Estimated
09:17AM 61.1502 1.7862 277° West  Level Estimated
09:18AM 61.1633 1.5497 277° West  Level Estimated
09:19AM 61.1760 1.3130 276° West  Level Estimated
09:20AM 61.1883 1.0761 276° West  Level Estimated
09:21AM 61.2002 0.8391 276° West  Level Estimated
09:22AM 61.2116 0.6019 276° West  Level Estimated
09:23AM 61.2227 0.3645 276° West  Level Estimated
09:24AM 61.2333 0.1269 275° West  Level Estimated
09:25AM 61.2435 -0.1108 275° West  Level Estimated
09:26AM 61.2533 -0.3486 275° West  Level Estimated
09:27AM 61.2626 -0.5866 275° West  Level Estimated
09:28AM 61.2716 -0.8248 275° West  Level Estimated
09:29AM 61.2802 -1.0631 274° West  Level Estimated
09:30AM 61.2883 -1.3015 274° West  Level Estimated
09:31AM 61.2960 -1.5400 274° West  Level Estimated
09:32AM 61.3033 -1.7786 274° West  Level Estimated
09:33AM 61.3101 -2.0174 274° West  Level Estimated
09:34AM 61.3166 -2.2562 273° West  Level Estimated
09:35AM 61.3226 -2.4952 273° West  Level Estimated
09:36AM 61.3282 -2.7342 273° West  Level Estimated
09:37AM 61.3334 -2.9733 273° West  Level Estimated
09:38AM 61.3382 -3.2125 272° West  Level Estimated
09:39AM 61.3425 -3.4518 272° West  Level Estimated
09:40AM 61.3464 -3.6911 272° West  Level Estimated
09:41AM 61.3499 -3.9305 272° West  Level Estimated
09:42AM 61.3530 -4.1699 272° West  Level Estimated
09:43AM 61.3557 -4.4094 271° West  Level Estimated
09:44AM 61.3579 -4.6489 271° West  Level Estimated
09:45AM 61.3598 -4.8884 271° West  Level Estimated
09:46AM 61.3612 -5.1280 271° West  Level Estimated
09:47AM 61.3621 -5.3676 271° West  Level Estimated
09:48AM 61.3627 -5.6072 270° West  Level Estimated
09:49AM 61.3628 -5.8468 270° West  Level Estimated
09:50AM 61.3625 -6.0864 270° West  Level Estimated
09:51AM 61.3618 -6.3260 270° West  Level Estimated
09:52AM 61.3607 -6.5655 270° West  Level Estimated
09:53AM 61.3592 -6.8051 269° West  Level Estimated
09:54AM 61.3572 -7.0446 269° West  Level Estimated
09:55AM 61.3548 -7.2841 269° West  Level Estimated
09:56AM 61.3520 -7.5236 269° West  Level Estimated
09:57AM 61.3488 -7.7630 268° West  Level Estimated
09:58AM 61.3451 -8.0024 268° West  Level Estimated
09:59AM 61.3410 -8.2417 268° West  Level Estimated
10:00AM 61.3365 -8.4809 268° West  Level Estimated
10:01AM 61.3316 -8.7201 268° West  Level Estimated
10:02AM 61.3263 -8.9592 267° West  Level Estimated
10:03AM 61.3205 -9.1981 267° West  Level Estimated
10:04AM 61.3143 -9.4371 267° West  Level Estimated
10:05AM 61.3077 -9.6759 267° West  Level Estimated
10:06AM 61.3007 -9.9146 267° West  Level Estimated
10:07AM 61.2933 -10.1532 266° West  Level Estimated
10:08AM 61.2854 -10.3917 266° West  Level Estimated
10:09AM 61.2772 -10.6300 266° West  Level Estimated
10:10AM 61.2685 -10.8683 266° West  Level Estimated
10:11AM 61.2594 -11.1064 266° West  Level Estimated
10:12AM 61.2499 -11.3443 265° West  Level Estimated
10:13AM 61.2399 -11.5821 265° West  Level Estimated
10:14AM 61.2296 -11.8198 265° West  Level Estimated
10:15AM 61.2188 -12.0573 265° West  Level Estimated
10:16AM 61.2076 -12.2946 265° West  Level Estimated
10:17AM 61.1960 -12.5318 264° West  Level Estimated
10:18AM 61.1840 -12.7687 264° West  Level Estimated
10:19AM 61.1716 -13.0055 264° West  Level Estimated
10:20AM 61.1587 -13.2421 264° West  Level Estimated
10:21AM 61.1455 -13.4785 263° West  Level Estimated
10:22AM 61.1318 -13.7148 263° West  Level Estimated
10:23AM 61.1177 -13.9508 263° West  Level Estimated
10:24AM 61.1032 -14.1866 263° West  Level Estimated
10:25AM 61.0883 -14.4221 263° West  Level Estimated
10:26AM 61.0730 -14.6575 262° West  Level Estimated
10:27AM 61.0573 -14.8926 262° West  Level Estimated
10:28AM 61.0412 -15.1275 262° West  Level Estimated
10:29AM 61.0247 -15.3621 262° West  Level Estimated
10:30AM 61.0077 -15.5965 262° West  Level Estimated
10:31AM 60.9904 -15.8306 261° West  Level Estimated
10:32AM 60.9726 -16.0645 261° West  Level Estimated
10:33AM 60.9545 -16.2981 261° West  Level Estimated
10:34AM 60.9359 -16.5315 261° West  Level Estimated
10:35AM 60.9170 -16.7645 261° West  Level Estimated
10:36AM 60.8976 -16.9973 260° West  Level Estimated
10:37AM 60.8778 -17.2298 260° West  Level Estimated
10:38AM 60.8577 -17.4620 260° West  Level Estimated
10:39AM 60.8371 -17.6940 260° West  Level Estimated
10:40AM 60.8162 -17.9256 260° West  Level Estimated
10:41AM 60.7948 -18.1569 259° West  Level Estimated
10:42AM 60.7730 -18.3879 259° West  Level Estimated
10:43AM 60.7509 -18.6186 259° West  Level Estimated
10:44AM 60.7283 -18.8489 259° West  Level Estimated
10:45AM 60.7054 -19.0790 259° West  Level Estimated
10:46AM 60.6820 -19.3087 258° West  Level Estimated
10:47AM 60.6583 -19.5380 258° West  Level Estimated
10:48AM 60.6342 -19.7671 258° West  Level Estimated
10:49AM 60.6097 -19.9958 258° West  Level Estimated
10:50AM 60.5848 -20.2241 258° West  Level Estimated
10:51AM 60.5595 -20.4521 257° West  Level Estimated
10:52AM 60.5338 -20.6797 257° West  Level Estimated
10:53AM 60.5077 -20.9070 257° West  Level Estimated
10:54AM 60.4813 -21.1339 257° West  Level Estimated
10:55AM 60.4544 -21.3604 257° West  Level Estimated
10:56AM 60.4272 -21.5865 256° West  Level Estimated
10:57AM 60.3996 -21.8123 256° West  Level Estimated
10:58AM 60.3716 -22.0376 256° West  Level Estimated
10:59AM 60.3433 -22.2626 256° West  Level Estimated
11:00AM 60.3145 -22.4872 256° West  Level Estimated
11:01AM 60.2854 -22.7114 255° West  Level Estimated
11:02AM 60.2559 -22.9352 255° West  Level Estimated
11:03AM 60.2260 -23.1586 255° West  Level Estimated
11:04AM 60.1958 -23.3816 255° West  Level Estimated
11:05AM 60.1651 -23.6041 255° West  Level Estimated
11:06AM 60.1342 -23.8263 254° West  Level Estimated
11:07AM 60.1028 -24.0480 254° West  Level Estimated
11:08AM 60.0710 -24.2693 254° West  Level Estimated
11:09AM 60.0390 -24.4902 254° West  Level Estimated
11:10AM 60.0065 -24.7106 254° West  Level Estimated
11:11AM 59.9736 -24.9306 253° West  Level Estimated
11:12AM 59.9404 -25.1502 253° West  Level Estimated
11:13AM 59.9069 -25.3693 253° West  Level Estimated
11:14AM 59.8729 -25.5880 253° West  Level Estimated
11:15AM 59.8386 -25.8062 253° West  Level Estimated
11:16AM 59.8040 -26.0240 253° West  Level Estimated
11:17AM 59.7690 -26.2413 252° West  Level Estimated
11:18AM 59.7336 -26.4582 252° West  Level Estimated
11:19AM 59.6979 -26.6746 252° West  Level Estimated
11:20AM 59.6618 -26.8906 252° West  Level Estimated
11:21AM 59.6254 -27.1061 252° West  Level Estimated
11:22AM 59.5886 -27.3211 251° West  Level Estimated
11:23AM 59.5514 -27.5356 251° West  Level Estimated
11:24AM 59.5139 -27.7497 251° West  Level Estimated
11:25AM 59.4761 -27.9632 251° West  Level Estimated
11:26AM 59.4379 -28.1763 251° West  Level Estimated
11:27AM 59.3994 -28.3890 250° West  Level Estimated
11:28AM 59.3605 -28.6011 250° West  Level Estimated
11:29AM 59.3213 -28.8128 250° West  Level Estimated
11:30AM 59.2817 -29.0239 250° West  Level Estimated
11:31AM 59.2418 -29.2346 250° West  Level Estimated
11:32AM 59.2015 -29.4448 250° West  Level Estimated
11:33AM 59.1610 -29.6544 249° West  Level Estimated
11:34AM 59.1200 -29.8636 249° West  Level Estimated
11:35AM 59.0788 -30.0723 249° West  Level Estimated
11:36AM 59.0372 -30.2805 249° West  Level Estimated
11:37AM 58.9953 -30.4881 249° West  Level Estimated
11:38AM 58.9530 -30.6953 248° West  Level Estimated
11:39AM 58.9104 -30.9019 248° West  Level Estimated
11:40AM 58.8672 -31.1097 248° West  Level Estimated
11:41AM 58.8236 -31.3170 248° West  Level Estimated
11:42AM 58.7797 -31.5238 248° West  Level Estimated
11:43AM 58.7354 -31.7300 248° West  Level Estimated
11:44AM 58.6908 -31.9357 247° West  Level Estimated
11:45AM 58.6459 -32.1409 247° West  Level Estimated
11:46AM 58.6007 -32.3456 247° West  Level Estimated
11:47AM 58.5551 -32.5497 247° West  Level Estimated
11:48AM 58.5087 -32.7557 247° West  Level Estimated
11:49AM 58.4619 -32.9613 247° West  Level Estimated
11:50AM 58.4148 -33.1663 246° West  Level Estimated
11:51AM 58.3674 -33.3707 246° West  Level Estimated
11:52AM 58.3196 -33.5746 246° West  Level Estimated
11:53AM 58.2715 -33.7779 246° West  Level Estimated
11:54AM 58.2231 -33.9807 246° West  Level Estimated
11:55AM 58.1744 -34.1829 246° West  Level Estimated
11:56AM 58.1254 -34.3846 245° Southwest  Level Estimated
11:57AM 58.0760 -34.5857 245° Southwest  Level Estimated
11:58AM 58.0263 -34.7863 245° Southwest  Level Estimated
11:59AM 57.9763 -34.9863 245° Southwest  Level Estimated
12:00PM 57.9260 -35.1857 245° Southwest  Level Estimated
12:01PM 57.8754 -35.3846 244° Southwest  Level Estimated
12:02PM 57.8245 -35.5829 244° Southwest  Level Estimated
12:03PM 57.7733 -35.7807 244° Southwest  Level Estimated
12:04PM 57.7217 -35.9778 244° Southwest  Level Estimated
12:05PM 57.6699 -36.1745 244° Southwest  Level Estimated
12:06PM 57.6178 -36.3705 244° Southwest  Level Estimated
12:07PM 57.5653 -36.5661 243° Southwest  Level Estimated
12:07PM 64.2167 -48.3833 243° Southwest 480 552 36,000  Level Gander Center
12:08PM 57.5126 -36.7610 243° Southwest  Level Estimated
12:09PM 57.4595 -36.9554 243° Southwest  Level Estimated
12:09PM 64.1500 -48.9500 255° West 470 541 36,000  Level Gander Center
12:11PM 64.0833 -49.5167 224° Southwest 470 541 36,000  Level Gander Center
12:12PM 57.2986 -37.5351 243° Southwest  Level Estimated
12:12PM 64.0333 -49.8000 248° West 460 529 36,000  Level Gander Center
12:13PM 57.2443 -37.7272 243° Southwest  Level Estimated
12:13PM 64.0000 -50.0833 255° West 460 529 36,000  Level Gander Center
12:14PM 63.9333 -50.5333 252° West 470 541 36,000  Level Gander Center
12:15PM 63.8833 -50.8167 248° West 470 541 36,000  Level Gander Center
12:16PM 63.8333 -51.0500 244° Southwest 460 529 36,000  Level Gander Center
12:17PM 63.7833 -51.3333 248° West 460 529 36,000  Level Gander Center
12:18PM 63.7500 -51.6167 255° West 460 529 36,000  Level Gander Center
12:19PM 63.7000 -51.8500 244° Southwest 460 529 36,000  Level Gander Center
12:21PM 63.6500 -52.2500 254° West 460 529 36,000  Level Gander Center
12:22PM 63.6000 -52.4833 244° Southwest 460 529 36,000  Level Gander Center
12:23PM 63.5500 -52.7667 248° West 460 529 36,000  Level Gander Center
12:24PM 63.4833 -53.0333 241° Southwest 460 529 36,000  Level Gander Center
12:25PM 63.4500 -53.3167 255° West 460 529 36,000  Level Gander Center
12:25PM 63.4333 -53.4333 252° West 460 529 36,000  Level Gander Center
12:26PM 63.3833 -53.7000 247° West 450 518 36,000  Level Gander Center
12:27PM 63.3167 -53.9667 241° Southwest 450 518 36,000  Level Gander Center
12:29PM 63.2500 -54.3167 247° West 450 518 36,000  Level Gander Center
12:30PM 63.2000 -54.6000 249° West 460 529 36,000  Level Gander Center
12:30PM 63.1833 -54.7500 256° West 450 518 36,000  Level Gander Center
12:31PM 63.1167 -54.9833 238° Southwest 450 518 36,000  Level Gander Center
12:32PM 63.0833 -55.2500 255° West 450 518 36,000  Level Gander Center
12:34PM 62.9667 -55.7333 242° Southwest 450 518 36,000  Level Gander Center
12:35PM 62.9333 -55.9667 253° West 450 518 36,000  Level Gander Center
12:37PM 62.8167 -56.4667 243° Southwest 450 518 36,000  Level Gander Center
12:39PM 62.7000 -56.9500 242° Southwest 450 518 36,000  Level Gander Center
12:40PM 62.6500 -57.0000 205° Southwest 450 518 36,000  Level Montreal Center
12:40PM 62.6333 -57.1667 258° West 450 518 36,000  Level Gander Center
12:41PM 62.5667 -57.4333 242° Southwest 440 506 36,000  Level Gander Center
12:42PM 62.5500 -57.4667 223° Southwest 440 506 36,000  Level Montreal Center
12:43PM 62.4500 -57.8833 243° Southwest 440 506 36,000  Level Gander Center
12:44PM 62.3833 -58.1000 236° Southwest 450 518 36,000  Level Gander Center
12:45PM 62.3333 -58.3167 244° Southwest 450 518 36,000  Level Gander Center
12:46PM 62.2833 -58.3833 212° Southwest 440 506 36,000  Level Montreal Center
12:47PM 62.2167 -58.6000 237° Southwest 440 506 36,000  Level Montreal Center
12:47PM 62.2000 -58.8000 260° West 440 506 36,000  Level Gander Center
12:48PM 62.1167 -59.0167 231° Southwest 440 506 36,000  Level Gander Center
12:50PM 62.0333 -59.2500 233° Southwest 440 506 36,000  Level Montreal Center
12:51PM 61.9667 -59.5000 241° Southwest 440 506 36,000  Level Montreal Center
12:52PM 61.9167 -59.7167 244° Southwest 430 495 36,000  Level Montreal Center
12:53PM 61.8500 -59.9333 237° Southwest 430 495 36,000  Level Montreal Center
12:53PM 61.8000 -60.0833 235° Southwest 440 506 36,000  Level Gander Center
12:54PM 61.7333 -60.3000 237° Southwest 440 506 36,000  Level Gander Center
12:55PM 61.7167 -60.3667 242° Southwest 440 506 36,000  Level Montreal Center
12:56PM 61.6500 -60.5833 237° Southwest 430 495 36,000  Level Montreal Center
12:57PM 61.5833 -60.7833 235° Southwest 430 495 36,000  Level Montreal Center
12:58PM 61.5167 -61.0000 237° Southwest 430 495 36,000  Level Montreal Center
12:58PM 61.4833 -61.1500 245° Southwest 430 495 36,000  Level Gander Center
01:00PM 61.3500 -61.5667 236° Southwest 420 483 36,000  Level Gander Center
01:01PM 61.3000 -61.7667 243° Southwest 420 483 36,000  Level Gander Center
01:02PM 61.2500 -61.8000 198° South 420 483 36,000  Level Montreal Center
01:02PM 61.2333 -61.9667 258° West 420 483 36,000  Level Gander Center
01:03PM 61.1833 -62.0000 198° South 420 483 36,000  Level Montreal Center
01:03PM 61.1667 -62.1500 257° West 420 483 36,000  Level Gander Center
01:04PM 61.1000 -62.3833 239° Southwest 420 483 36,000  Level Gander Center
01:05PM 61.0500 -62.4167 198° South 420 483 36,000  Level Montreal Center
01:06PM 60.9833 -62.6167 236° Southwest 420 483 36,000  Level Montreal Center
01:07PM 60.9167 -62.7833 231° Southwest 420 483 36,000  Level Montreal Center
01:09PM 60.7833 -63.1833 236° Southwest 410 472 36,000  Level Montreal Center
01:10PM 60.7167 -63.3833 236° Southwest 410 472 36,000  Level Montreal Center
01:10PM 60.7000 -63.5167 256° West 420 483 36,000  Level Gander Center
01:12PM 60.5667 -63.9167 236° Southwest 410 472 36,000  Level Gander Center
01:13PM 60.5167 -63.9500 198° South 410 472 36,000  Level Montreal Center
01:14PM 60.4667 -64.1333 241° Southwest 410 472 36,000  Level Montreal Center
01:15PM 60.4000 -64.3000 231° Southwest 410 472 36,000  Level Montreal Center
01:16PM 60.3333 -64.5000 236° Southwest 410 472 36,000  Level Montreal Center
01:17PM 60.2500 -64.6833 228° Southwest 410 472 36,000  Level Montreal Center
01:18PM 60.1833 -64.8833 236° Southwest 410 472 36,000  Level Montreal Center
01:18PM 60.1500 -65.0167 243° Southwest 410 472 36,000  Level Gander Center
01:19PM 60.0833 -65.1833 231° Southwest 410 472 36,000  Level Gander Center
01:20PM 59.9833 -65.3333 217° Southwest 420 483 36,000  Level Gander Center
01:22PM 59.8667 -65.5333 221° Southwest 410 472 36,000  Level Montreal Center
01:23PM 59.7667 -65.6500 210° Southwest 410 472 36,000  Level Montreal Center
01:24PM 59.6833 -65.8167 225° Southwest 420 483 36,000  Level Montreal Center
01:24PM 59.6500 -65.9667 246° West 420 483 36,000  Level Gander Center
01:25PM 59.5500 -66.1167 217° Southwest 420 483 36,000  Level Gander Center
01:27PM 59.4333 -66.2667 213° Southwest 410 472 36,000  Level Montreal Center
01:28PM 59.3333 -66.4167 217° Southwest 410 472 36,000  Level Montreal Center
01:29PM 59.2667 -66.5333 222° Southwest 410 472 36,000  Level Montreal Center
01:30PM 59.1667 -66.7000 221° Southwest 410 472 36,000  Level Montreal Center
01:31PM 59.0833 -66.8500 223° Southwest 420 483 36,000  Level Montreal Center
01:32PM 58.9833 -66.9667 211° Southwest 420 483 36,000  Level Montreal Center
01:33PM 58.9000 -67.1333 226° Southwest 420 483 36,000  Level Montreal Center
01:34PM 58.8000 -67.2833 218° Southwest 410 472 36,000  Level Montreal Center
01:35PM 58.7333 -67.4333 229° Southwest 410 472 36,000  Level Montreal Center
01:36PM 58.6333 -67.5500 211° Southwest 410 472 36,000  Level Montreal Center
01:37PM 58.5500 -67.7000 223° Southwest 410 472 36,000  Level Montreal Center
01:38PM 58.4500 -67.8500 218° Southwest 410 472 36,000  Level Montreal Center
01:38PM 58.4167 -67.9667 241° Southwest 410 472 36,000  Level Gander Center
01:39PM 58.3167 -68.1167 218° Southwest 410 472 36,000  Level Gander Center
01:40PM 58.2333 -68.2500 220° Southwest 410 472 36,000  Level Gander Center
01:41PM 58.1500 -68.3667 216° Southwest 410 472 36,000  Level Gander Center
01:43PM 57.9500 -68.6500 207° Southwest 410 472 36,000  Level Gander Center
01:44PM 57.9000 -68.6667 190° South 410 472 36,000  Level Montreal Center
01:45PM 57.8000 -68.7833 212° Southwest 410 472 36,000  Level Montreal Center
01:46PM 57.7000 -68.9333 219° Southwest 410 472 36,000  Level Montreal Center
01:47PM 57.6333 -69.0500 223° Southwest 410 472 36,000  Level Montreal Center
01:48PM 57.5333 -69.1833 216° Southwest 410 472 36,000  Level Montreal Center
01:50PM 57.3333 -69.4500 216° Southwest 410 472 36,000  Level Montreal Center
01:51PM 57.2333 -69.5500 208° Southwest 410 472 36,000  Level Montreal Center
01:53PM 57.0667 -69.8000 219° Southwest 410 472 36,000  Level Montreal Center
01:54PM 56.9667 -69.9000 209° Southwest 410 472 36,000  Level Montreal Center
01:55PM 56.8667 -70.0500 219° Southwest 410 472 36,000  Level Montreal Center
01:56PM 56.7667 -70.1500 209° Southwest 410 472 36,000  Level Montreal Center
01:57PM 56.6833 -70.2833 221° Southwest 410 472 36,000  Level Montreal Center
01:58PM 56.5833 -70.4000 213° Southwest 410 472 36,000  Level Montreal Center
02:00PM 56.3833 -70.6333 213° Southwest 420 483 36,000  Level Montreal Center
02:01PM 56.3000 -70.7500 218° Southwest 420 483 36,000  Level Montreal Center
02:02PM 56.2000 -70.8833 217° Southwest 420 483 36,000  Level Montreal Center
02:04PM 56.0000 -71.1167 213° Southwest 420 483 36,000  Level Montreal Center
02:05PM 55.9167 -71.2167 214° Southwest 420 483 36,000  Level Montreal Center
02:06PM 55.8167 -71.3500 217° Southwest 420 483 36,000  Level Montreal Center
02:07PM 55.7000 -71.4833 213° Southwest 420 483 36,000  Level Montreal Center
02:08PM 55.6000 -71.5833 209° Southwest 420 483 36,000  Level Montreal Center
02:10PM 55.4000 -71.8167 214° Southwest 420 483 36,000  Level Montreal Center
02:11PM 55.3167 -71.9333 219° Southwest 420 483 36,000  Level Montreal Center
02:12PM 55.2167 -72.0333 210° Southwest 420 483 36,000  Level Montreal Center
02:13PM 55.1167 -72.1667 217° Southwest 430 495 36,000  Level Montreal Center
02:15PM 54.9167 -72.3833 212° Southwest 430 495 36,000  Level Montreal Center
02:16PM 54.8167 -72.4833 210° Southwest 430 495 36,000  Level Montreal Center
02:17PM 54.7000 -72.6167 213° Southwest 430 495 36,000  Level Montreal Center
02:18PM 54.6167 -72.7000 210° Southwest 440 506 36,000  Level Montreal Center
02:19PM 54.5000 -72.8333 214° Southwest 440 506 36,000  Level Montreal Center
02:20PM 54.4000 -72.9500 214° Southwest 440 506 36,000  Level Montreal Center
02:21PM 54.3000 -73.0833 218° Southwest 440 506 36,000  Level Montreal Center
02:22PM 54.1833 -73.1667 203° Southwest 440 506 36,000  Level Montreal Center
02:24PM 53.9833 -73.4167 216° Southwest 440 506 36,000  Level Montreal Center
02:25PM 53.8833 -73.5000 206° Southwest 440 506 36,000  Level Montreal Center
02:26PM 53.7667 -73.6333 214° Southwest 440 506 36,000  Level Montreal Center
02:27PM 53.6667 -73.7167 206° Southwest 440 506 36,000  Level Montreal Center
02:28PM 53.5500 -73.8333 211° Southwest 440 506 36,000  Level Montreal Center
02:29PM 53.4500 -73.9333 211° Southwest 440 506 36,000  Level Montreal Center
02:30PM 53.3167 -74.0167 200° South 440 506 36,000  Level Montreal Center
02:31PM 53.2167 -74.1000 207° Southwest 440 506 36,000  Level Montreal Center
02:32PM 53.1000 -74.2000 207° Southwest 440 506 36,000  Level Montreal Center
02:33PM 52.9833 -74.2833 203° Southwest 440 506 36,000  Level Montreal Center
02:34PM 52.8833 -74.3667 207° Southwest 440 506 36,000  Level Montreal Center
02:35PM 52.7667 -74.4667 207° Southwest 440 506 36,000  Level Montreal Center
02:36PM 52.6833 -74.5500 211° Southwest 440 506 36,000  Level Montreal Center
02:38PM 52.4333 -74.7167 202° Southwest 440 506 36,000  Level Montreal Center
02:39PM 52.3167 -74.8000 204° Southwest 430 495 36,000  Level Montreal Center
02:41PM 52.1000 -74.9500 203° Southwest 440 506 36,000  Level Montreal Center
02:43PM 51.8833 -75.1500 210° Southwest 440 506 36,000  Level Montreal Center
02:44PM 51.7667 -75.2333 204° Southwest 440 506 36,000  Level Montreal Center
02:45PM 51.6667 -75.2833 197° South 440 506 36,000  Level Montreal Center
02:46PM 51.5500 -75.3667 204° Southwest 440 506 36,000  Level Montreal Center
02:47PM 51.4500 -75.4500 207° Southwest 440 506 36,000  Level Montreal Center
02:48PM 51.3333 -75.5667 212° Southwest 440 506 36,000  Level Montreal Center
02:49PM 51.2167 -75.6167 195° South 440 506 36,000  Level Montreal Center
02:50PM 51.1000 -75.7000 204° Southwest 440 506 36,000  Level Montreal Center
02:51PM 51.0000 -75.7833 208° Southwest 430 495 36,000  Level Montreal Center
02:52PM 50.9000 -75.8667 208° Southwest 440 506 36,000  Level Montreal Center
02:53PM 50.7833 -75.9333 200° South 430 495 36,000  Level Montreal Center
02:54PM 50.6667 -76.0167 204° Southwest 430 495 36,000  Level Montreal Center
02:56PM 50.5027 -76.1321 204° Southwest  Level FlightAware Approximate
02:56PM 50.4500 -76.1833 204° Southwest 440 506 36,000  Level Montreal Center
02:57PM 50.3333 -76.2500 200° South 440 506 36,000  Level Montreal Center
02:58PM 50.2333 -76.3333 208° Southwest 440 506 36,000  Level Montreal Center
02:59PM 50.1167 -76.4167 205° Southwest 440 506 36,000  Level Montreal Center
03:00PM 49.9833 -76.4833 198° South 440 506 36,000  Level Montreal Center
03:01PM 49.8667 -76.5667 205° Southwest 450 518 36,000  Level Montreal Center
03:02PM 49.7667 -76.6500 208° Southwest 450 518 36,000  Level Montreal Center
03:04PM 49.6012 -76.7597 203° Southwest  Level FlightAware Approximate
03:04PM 49.5333 -76.8000 203° Southwest 440 506 36,000  Level Montreal Center
03:05PM 49.4167 -76.8667 200° South 470 541 36,000  Level Montreal Center
03:06PM 49.3000 -76.9500 205° Southwest 450 518 36,000  Level Montreal Center
03:07PM 49.2000 -77.0167 204° Southwest 450 518 36,000  Level Montreal Center
03:09PM 48.9667 -77.2000 207° Southwest 450 518 36,000  Level Montreal Center
03:10PM 48.8333 -77.2667 198° South 450 518 36,000  Level Montreal Center
03:11PM 48.7167 -77.3500 205° Southwest 450 518 36,000  Level Montreal Center
03:12PM 48.6000 -77.4167 201° Southwest 450 518 36,000  Level Montreal Center
03:13PM 48.4833 -77.4833 201° Southwest 460 529 36,000  Level Montreal Center
03:14PM 48.3667 -77.5667 205° Southwest 460 529 36,000  Level Montreal Center
03:15PM 48.2500 -77.6333 201° Southwest 460 529 36,000  Level Montreal Center
03:16PM 48.1333 -77.7333 210° Southwest 460 529 36,000  Level Montreal Center
03:17PM 48.0167 -77.8000 201° Southwest 460 529 36,000  Level Montreal Center
03:18PM 47.9000 -77.8667 201° Southwest 460 529 36,000  Level Montreal Center
03:19PM 47.7667 -77.9333 199° South 460 529 36,000  Level Montreal Center
03:20PM 47.6500 -78.0167 206° Southwest 450 518 36,000  Level Montreal Center
03:21PM 47.5333 -78.0833 201° Southwest 450 518 36,000  Level Montreal Center
03:27PM 46.9065 -78.4661 203° Southwest 454 522 36,000  Level FlightAware ADS-B (CYYZ)
03:27PM 46.8293 -78.5122 203° Southwest 455 524 36,000  Level FlightAware ADS-B (CYYZ)
03:28PM 46.7702 -78.5473 203° Southwest 455 524 36,000  Level FlightAware ADS-B (CYYZ)
03:28PM 46.7169 -78.5789 203° Southwest 457 526 36,000  Level FlightAware ADS-B (CYYZ)
03:29PM 46.6517 -78.6176 203° Southwest 458 527 36,000  Level FlightAware ADS-B (CYYZ)
03:29PM 46.5964 -78.6503 203° Southwest 458 527 36,000  Level FlightAware ADS-B (CYYZ)
03:30PM 46.5327 -78.6878 203° Southwest 458 527 36,000  Level FlightAware ADS-B (CYYZ)
03:30PM 46.4474 -78.7379 203° Southwest 458 527 36,000  Level FlightAware ADS-B (CYYZ)
03:31PM 46.3841 -78.7749 203° Southwest 458 527 36,000  Level FlightAware ADS-B (CYYZ)
03:32PM 46.2956 -78.8267 202° Southwest 459 528 36,000  Level FlightAware ADS-B (CYYZ)
03:32PM 46.2376 -78.8604 202° Southwest 459 528 36,000  Level FlightAware ADS-B (CYYZ)
03:33PM 46.1511 -78.9106 202° Southwest 460 529 36,000  Level FlightAware ADS-B (CYYZ)
03:33PM 46.0906 -78.9457 203° Southwest 460 529 36,000  Level FlightAware ADS-B (CYYZ)
03:34PM 46.0312 -78.9801 202° Southwest 461 531 36,000  Level FlightAware ADS-B (CYYZ)
03:34PM 45.9711 -79.0147 202° Southwest 463 533 36,000  Level FlightAware ADS-B (CYYZ)
03:35PM 45.9093 -79.0502 202° Southwest 464 534 36,000  Level FlightAware ADS-B (CYYZ)
03:36PM 45.8175 -79.1028 202° Southwest 465 535 36,000  Level FlightAware ADS-B (CYYZ)
03:36PM 45.7582 -79.1367 202° Southwest 466 536 36,000  Level FlightAware ADS-B (CYYZ)
03:37PM 45.6973 -79.1714 202° Southwest 464 534 36,000  Level FlightAware ADS-B (CYYZ)
03:37PM 45.6399 -79.2041 202° Southwest 464 534 36,000  Level FlightAware ADS-B (CYYZ)
03:38PM 45.5806 -79.2377 202° Southwest 464 534 36,000  Level FlightAware ADS-B (CYYZ)
03:38PM 45.4902 -79.2889 202° Southwest 463 533 36,000  Level FlightAware ADS-B (CYYZ)
03:39PM 45.4286 -79.3236 202° Southwest 463 533 36,000  Level FlightAware ADS-B (CYYZ)
03:39PM 45.3695 -79.3569 202° Southwest 464 534 36,000  Level FlightAware ADS-B (CYYZ)
03:40PM 45.3081 -79.3914 202° Southwest 465 535 36,000  Level FlightAware ADS-B (CYYZ)
03:40PM 45.2505 -79.4237 202° Southwest 466 536 36,000  Level FlightAware ADS-B (CYYZ)
03:41PM 45.1633 -79.4724 202° Southwest 465 535 36,000  Level FlightAware ADS-B (CYYZ)
03:42PM 45.1000 -79.5077 202° Southwest 465 535 36,000  Level FlightAware ADS-B (CYYZ)
03:42PM 45.0403 -79.5408 202° Southwest 466 536 36,000  Level FlightAware ADS-B (CYYZ)
03:43PM 44.9765 -79.5763 202° Southwest 466 536 36,000  Level FlightAware ADS-B (CYYZ)
03:43PM 44.9158 -79.6099 202° Southwest 466 536 36,000  Level FlightAware ADS-B (CYYZ)
03:44PM 44.8556 -79.6432 202° Southwest 465 535 36,000  Level FlightAware ADS-B (CYYZ)
03:44PM 44.7963 -79.6759 202° Southwest 465 535 36,000  Level FlightAware ADS-B (CYYZ)
03:45PM 44.7472 -79.7028 201° Southwest 466 536 36,000  Level FlightAware ADS-B (CYKZ)
03:45PM 44.7057 -79.7256 202° Southwest 466 536 36,000  Level FlightAware ADS-B (CYYZ)
03:45PM 44.6664 -79.7472 201° Southwest 466 536 36,000  Level FlightAware ADS-B (CYKZ)
03:46PM 44.6450 -79.7589 202° Southwest 466 536 36,000  Level FlightAware ADS-B (CYYZ)
03:46PM 44.5868 -79.7936 206° Southwest 463 533 36,000  Level FlightAware ADS-B (CYYZ)
03:46PM 44.5624 -79.8111 209° Southwest 461 531 36,000  Level FlightAware ADS-B (CYKZ)
03:47PM 44.5300 -79.8378 213° Southwest 459 528 36,000  Level FlightAware ADS-B (CYYZ)
03:47PM 44.4752 -79.8884 214° Southwest 457 526 36,000  Level FlightAware ADS-B (CYYZ)
03:47PM 44.4580 -79.9044 214° Southwest 457 526 36,000  Level FlightAware ADS-B (CYKZ)
03:48PM 44.3984 -79.9588 213° Southwest 456 525 36,000  Level FlightAware ADS-B (CYYZ)
03:48PM 44.3536 -79.9992 213° Southwest 455 524 36,000  Level FlightAware ADS-B (CYKZ)
03:49PM 44.3157 -80.0331 213° Southwest 456 525 36,000  Level FlightAware ADS-B (CYYZ)
03:49PM 44.2859 -80.0598 213° Southwest 457 526 36,000  Level FlightAware ADS-B (CYKZ)
03:49PM 44.2623 -80.0808 213° Southwest 457 526 36,000  Level FlightAware ADS-B (CYYZ)
03:50PM 44.2110 -80.1267 213° Southwest 458 527 36,000  Level FlightAware ADS-B (CYYZ)
03:50PM 44.1947 -80.1412 213° Southwest 459 528 36,000  Level FlightAware ADS-B (CYKZ)
03:50PM 44.1551 -80.1766 213° Southwest 459 528 36,000  Level FlightAware ADS-B (CYYZ)
03:51PM 44.1020 -80.2238 213° Southwest 460 529 36,000  Level FlightAware ADS-B (CYYZ)
03:51PM 44.0833 -80.2404 213° Southwest 461 531 36,000  Level FlightAware ADS-B (CYKZ)
03:51PM 44.0198 -80.2967 213° Southwest 459 528 36,000  Level FlightAware ADS-B (CYYZ)
03:52PM 44.0106 -80.3049 213° Southwest 460 529 36,000  Level FlightAware ADS-B (CYKF)
03:52PM 43.9668 -80.3437 213° Southwest 459 528 36,000  Level FlightAware ADS-B (CYYZ)
03:52PM 43.9270 -80.3789 213° Southwest 460 529 36,000  Level FlightAware ADS-B (CYKZ)
03:53PM 43.8848 -80.4159 213° Southwest 460 529 36,000  Level FlightAware ADS-B (CYYZ)
03:53PM 43.8266 -80.4671 212° Southwest 461 531 36,000  Level FlightAware ADS-B (CYHM)
03:53PM 43.8043 -80.4866 213° Southwest 460 529 36,000  Level FlightAware ADS-B (CYYZ)
03:54PM 43.7579 -80.5273 212° Southwest 461 531 36,000  Level FlightAware ADS-B (CYKZ)
03:54PM 43.7498 -80.5344 213° Southwest 460 529 36,000  Level FlightAware ADS-B (CYYZ)
03:54PM 43.6958 -80.5816 213° Southwest 461 531 36,000  Level FlightAware ADS-B (CYYZ)
03:55PM 43.6412 -80.6293 213° Southwest 460 529 36,000  Level FlightAware ADS-B (CYYZ)
03:55PM 43.6478 -80.6236 212° Southwest 461 531 36,000  Level FlightAware ADS-B (CYHM)
03:55PM 43.5875 -80.6761 213° Southwest 460 529 36,000  Level FlightAware ADS-B (CYYZ)
03:56PM 43.5324 -80.7239 213° Southwest 458 527 36,000  Level FlightAware ADS-B (CYYZ)
03:56PM 43.4785 -80.7707 213° Southwest 458 527 36,000  Level FlightAware ADS-B (CYYZ)
03:57PM 43.4434 -80.8011 212° Southwest 459 528 36,000  Level FlightAware ADS-B (CYKF)
03:57PM 43.4246 -80.8173 213° Southwest 459 528 36,000  Level FlightAware ADS-B (CYYZ)
03:57PM 43.3710 -80.8636 213° Southwest 459 528 36,000  Level FlightAware ADS-B (CYYZ)
03:57PM 43.3614 -80.8719 212° Southwest 460 529 36,000  Level FlightAware ADS-B (CYKF)
03:58PM 43.3158 -80.9110 213° Southwest 458 527 36,000  Level FlightAware ADS-B (CYYZ)
03:58PM 43.3001 -80.9246 212° Southwest 458 527 36,000  Level FlightAware ADS-B (CYKZ)
03:58PM 43.2640 -80.9556 213° Southwest 458 527 36,000  Level FlightAware ADS-B (CYYZ)
03:59PM 43.2235 -80.9904 212° Southwest 459 528 36,000  Level FlightAware ADS-B (CYKZ)
03:59PM 43.2074 -81.0041 212° Southwest 458 527 36,000  Level FlightAware ADS-B (CYYZ)
03:59PM 43.1619 -81.0429 212° Southwest 457 526 36,000  Level FlightAware ADS-B (CYKZ)
03:59PM 43.1543 -81.0495 212° Southwest 457 526 36,000  Level FlightAware ADS-B (CYYZ)
04:00PM 43.0996 -81.0962 213° Southwest 456 525 36,000  Level FlightAware ADS-B (CYYZ)
04:00PM 43.0916 -81.1031 212° Southwest 457 526 36,000  Level FlightAware ADS-B (CYKZ)
04:00PM 43.0338 -81.1498 207° Southwest 459 528 36,000  Level FlightAware ADS-B (CYKZ)
04:01PM 43.0179 -81.1603 206° Southwest 460 529 36,000  Level FlightAware ADS-B (CYYZ)
04:01PM 42.9548 -81.1984 205° Southwest 459 528 36,000  Level FlightAware ADS-B (CYKZ)
04:01PM 42.9491 -81.2021 206° Southwest 459 528 36,000  Level FlightAware ADS-B (CYYZ)
04:02PM 42.8752 -81.2494 205° Southwest 458 527 36,000  Level FlightAware ADS-B (CYKZ)
04:02PM 42.8727 -81.2509 205° Southwest 457 526 36,000  Level FlightAware ADS-B (CYYZ)
04:02PM 42.8039 -81.2937 204° Southwest 457 526 36,000  Level FlightAware ADS-B (CYKZ)
04:03PM 42.7869 -81.3041 205° Southwest 456 525 36,000  Level FlightAware ADS-B (CYYZ)
04:03PM 42.7204 -81.3450 204° Southwest 459 528 36,000  Level FlightAware ADS-B (CYKZ)
04:03PM 42.6994 -81.3579 205° Southwest 458 527 36,000  Level FlightAware ADS-B (CYYZ)
04:04PM 42.6458 -81.3906 204° Southwest 460 529 36,000  Level FlightAware ADS-B (CYKZ)
04:04PM 42.6111 -81.4119 205° Southwest 460 529 36,000  Level FlightAware ADS-B (CYYZ)
04:05PM 42.5614 -81.4421 204° Southwest 461 531 36,000  Level FlightAware ADS-B (CYKZ)
04:05PM 42.5244 -81.4647 205° Southwest 460 529 36,000  Level FlightAware ADS-B (CYYZ)
04:05PM 42.4877 -81.4870 204° Southwest 461 531 36,000  Level FlightAware ADS-B (CYKZ)
04:06PM 42.4359 -81.5184 205° Southwest 460 529 36,000  Level FlightAware ADS-B (CYYZ)
04:06PM 42.3536 -81.5684 205° Southwest 459 528 36,000  Level FlightAware ADS-B (CYYZ)
04:07PM 42.2944 -81.6043 205° Southwest 460 529 36,000  Level FlightAware ADS-B (CYYZ)
04:07PM 42.2322 -81.6419 205° Southwest 461 531 36,000  Level FlightAware ADS-B (CYYZ)
04:07PM 42.2849 -81.6100 204° Southwest 462 532 36,000  Level FlightAware ADS-B (CYKZ)
04:08PM 42.1497 -81.6918 205° Southwest 463 533 36,000  Level FlightAware ADS-B (CYYZ)
04:09PM 42.0855 -81.7303 205° Southwest 465 535 36,000  Level FlightAware ADS-B (CYYZ)
04:09PM 42.0283 -81.7647 205° Southwest 466 536 36,000  Level FlightAware ADS-B (CYYZ)
04:10PM 41.9391 -81.8181 205° Southwest 468 539 36,000  Level FlightAware ADS-B (CYYZ)
04:10PM 41.8791 -81.8540 204° Southwest 469 540 36,000  Level FlightAware ADS-B (CYYZ)
04:11PM 41.8245 -81.8865 204° Southwest 469 540 36,000  Level FlightAware ADS-B (CYYZ)
04:11PM 41.7733 -81.9169 204° Southwest 469 540 36,000  Level FlightAware ADS-B (CYYZ)
04:12PM 41.6692 -81.9787 204° Southwest 466 536 36,000  Level FlightAware ADS-B (CYYZ)
04:13PM 41.5847 -82.0286 204° Southwest 465 535 36,000  Level FlightAware ADS-B (CYYZ)
04:14PM 41.4957 -82.0810 204° Southwest 464 534 36,000  Level FlightAware ADS-B (CYYZ)
04:14PM 41.4207 -82.1251 204° Southwest 463 533 36,000  Level FlightAware ADS-B (CYYZ)
04:15PM 41.3122 -82.1797 204° Southwest 465 535 36,000  Level Cleveland Center
04:16PM 41.1881 -82.2231 195° South 464 534 36,000  Level Cleveland Center
04:22PM 40.4659 -82.4787 195° South 439 505 36,000  Level FlightAware ADS-B (KVTA)
04:23PM 40.3352 -82.5244 195° South 438 504 36,000  Level FlightAware ADS-B (KVTA)
04:24PM 40.2763 -82.5449 195° South 439 505 36,000  Level FlightAware ADS-B (KVTA)
04:24PM 40.2238 -82.5632 195° South 441 507 36,000  Level FlightAware ADS-B (KVTA)
04:25PM 40.1583 -82.5827 189° South 446 513 36,000  Level FlightAware ADS-B (KVTA)
04:25PM 40.0665 -82.5928 183° South 452 520 36,000  Level FlightAware ADS-B (KVTA)
04:26PM 40.0039 -82.5977 184° South 451 519 36,000  Level FlightAware ADS-B (KVTA)
04:27PM 39.9466 -82.6021 183° South 452 520 36,000  Level FlightAware ADS-B (KVTA)
04:27PM 39.8454 -82.6092 183° South 450 518 36,000  Level FlightAware ADS-B (KVTA)
04:28PM 39.7829 -82.6134 183° South 450 518 36,000  Level FlightAware ADS-B (KPMH)
04:28PM 39.7004 -82.6190 183° South 451 519 36,000  Level FlightAware ADS-B (KPMH)
04:29PM 39.6271 -82.6239 183° South 452 520 36,000  Level FlightAware ADS-B (KVTA)
04:30PM 39.5438 -82.6295 183° South 452 520 36,000  Level FlightAware ADS-B (KPMH)
04:30PM 39.4850 -82.6334 183° South 453 521 36,000  Level FlightAware ADS-B (KPMH)
04:31PM 39.4181 -82.6379 183° South 454 522 36,000  Level FlightAware ADS-B (KPMH)
04:31PM 39.3571 -82.6420 183° South 454 522 36,000  Level FlightAware ADS-B (KPMH)
04:32PM 39.2839 -82.6469 183° South 455 524 36,000  Level FlightAware ADS-B (KVTA)
04:32PM 39.2142 -82.6516 183° South 454 522 36,000  Level FlightAware ADS-B (KPMH)
04:33PM 39.1502 -82.6558 183° South 454 522 36,000  Level FlightAware ADS-B (KPMH)
04:33PM 39.0836 -82.6602 183° South 454 522 36,000  Level FlightAware ADS-B (KPMH)
04:34PM 39.0129 -82.6648 183° South 454 522 36,000  Level FlightAware ADS-B (KVTA)
04:35PM 38.9264 -82.6705 183° South 455 524 36,000  Level FlightAware ADS-B (KPMH)
04:35PM 38.8615 -82.6748 183° South 455 524 36,000  Level FlightAware ADS-B (KPMH)
04:36PM 38.7681 -82.6810 183° South 457 526 36,000  Level FlightAware ADS-B (KPMH)
04:36PM 38.6992 -82.6855 183° South 458 527 36,000  Level FlightAware ADS-B (KPMH)
04:37PM 38.6140 -82.6912 183° South 458 527 36,000  Level FlightAware ADS-B (KPMH)
04:37PM 38.6000 -82.6922 182° South 453 521 36,000  Level Indianapolis Center
04:38PM 38.5942 -82.6924 183° South 456 525 36,000  Level FlightAware ADS-B (KPMH)
04:38PM 38.4850 -82.6996 183° South 456 525 36,000  Level FlightAware ADS-B (KPMH)
04:38PM 38.4733 -82.7008 183° South 454 522 36,000  Level Indianapolis Center
04:39PM 38.3261 -82.7100 183° South 454 522 36,000  Level Indianapolis Center
04:40PM 38.1989 -82.7178 183° South 454 522 36,000  Level Indianapolis Center
04:41PM 38.0736 -82.7253 183° South 454 522 36,000  Level Indianapolis Center
04:43PM 37.8225 -82.7422 182° South 453 521 36,000  Level Indianapolis Center
04:45PM 37.6975 -82.7589 186° South 453 521 36,000  Level Indianapolis Center
04:47PM 37.4525 -82.9000 205° Southwest 448 516 36,000  Level Indianapolis Center
04:48PM 37.3447 -82.9717 208° Southwest 443 510 36,000  Level Indianapolis Center
04:51PM 37.0056 -83.1950 208° Southwest 439 505 36,000  Level Indianapolis Center
04:52PM 36.8972 -83.2628 207° Southwest 439 505 36,000  Level Indianapolis Center
04:54PM 36.6814 -83.4011 207° Southwest 438 504 36,000  Level Indianapolis Center
04:55PM 36.5575 -83.4808 207° Southwest 434 499 36,000  Level Indianapolis Center
04:57PM 36.3058 -83.6444 206° Southwest 426 490 36,000  Level Atlanta Center
04:58PM 36.2375 -83.6850 206° Southwest 431 496 36,000  Level Indianapolis Center
04:59PM 36.0831 -83.7844 207° Southwest 431 496 36,000  Level Atlanta Center
05:00PM 35.9767 -83.8514 207° Southwest 431 496 36,000  Level Atlanta Center
05:01PM 35.8622 -83.9056 201° Southwest 431 496 36,000  Level Atlanta Center
05:02PM 35.7433 -83.9339 191° South 436 502 36,000  Level Atlanta Center
05:03PM 35.6222 -83.9647 192° South 441 507 36,000  Level Atlanta Center
05:08PM 35.0433 -84.1029 191° South 440 506 36,000  Level FlightAware ADS-B (KMDQ)
05:09PM 34.8942 -84.1400 191° South 446 513 36,000  Level Atlanta Center
05:10PM 34.7731 -84.1678 191° South 446 513 36,000  Level Atlanta Center
05:11PM 34.6625 -84.1953 192° South 446 513 36,000  Level Atlanta Center
05:13PM 34.4222 -84.2528 191° South 451 519 36,000  Level Atlanta Center
05:14PM 34.2969 -84.2803 190° South 451 519 36,000  Level Atlanta Center
05:15PM 34.1800 -84.3075 191° South 446 513 36,000  Level Atlanta Center
05:16PM 34.0547 -84.3372 191° South 453 521 36,000  Level Atlanta Center
05:17PM 33.9400 -84.3644 191° South 443 510 36,000  Level Atlanta Center
05:19PM 33.6892 -84.4233 190° South 452 520 36,000  Level Atlanta Center
05:20PM 33.5556 -84.4353 184° South 445 512 36,000 300 Level Atlanta Center
05:22PM 33.3053 -84.4314 178° South 445 512 36,900 300 Climbing Atlanta Center
05:23PM 33.1800 -84.4286 179° South 440 506 37,000  Climbing Atlanta Center
05:24PM 33.0569 -84.4256 179° South 440 506 37,000  Level Atlanta Center
05:25PM 32.9317 -84.4225 179° South 446 513 37,000  Level Atlanta Center
05:26PM 32.8083 -84.4194 179° South 446 513 37,000  Level Atlanta Center
05:28PM 32.5600 -84.4133 179° South 446 513 37,000  Level Atlanta Center
05:31PM 32.1739 -84.4069 180° South 462 532 37,000  Level Atlanta Center
05:37PM 31.5755 -84.3833 180° South  Level FlightAware Approximate
05:38PM 31.3210 -84.3887 179° South 485 558 37,000  Level FlightAware ADS-B (KTLH)
05:39PM 31.1447 -84.3853 179° South 487 560 37,000  Level FlightAware ADS-B (KTLH)
05:40PM 31.0720 -84.3838 179° South 487 560 37,000  Level FlightAware ADS-B (KTLH)
05:40PM 30.9804 -84.3821 179° South 485 558 37,000  Level FlightAware ADS-B (KTLH)
05:41PM 30.8981 -84.3805 179° South 484 557 37,000  Level FlightAware ADS-B (KTLH)
05:42PM 30.8029 -84.3786 179° South 483 556 37,000  Level FlightAware ADS-B (KTLH)
05:42PM 30.7453 -84.3775 179° South 482 555 37,000  Level FlightAware ADS-B (KTLH)
05:43PM 30.6492 -84.3707 172° South 483 556 37,000  Level FlightAware ADS-B (KTLH)
05:43PM 30.5817 -84.3559 167° South 483 556 37,000  Level FlightAware ADS-B (KTLH)
05:44PM 30.4966 -84.3252 159° South 483 556 37,000  Level FlightAware ADS-B (KTLH)
05:45PM 30.4220 -84.2853 153° Southeast 480 552 37,000  Level FlightAware ADS-B (KTLH)
05:45PM 30.3689 -84.2505 151° Southeast 478 550 37,000  Level FlightAware ADS-B (KTLH)
05:46PM 30.2994 -84.2054 151° Southeast 479 551 37,000  Level FlightAware ADS-B (KTLH)
05:46PM 30.2409 -84.1673 150° Southeast 478 550 37,000  Level FlightAware ADS-B (KTLH)
05:47PM 30.1858 -84.1314 151° Southeast 478 550 37,000  Level FlightAware ADS-B (KTLH)
05:47PM 30.1575 -84.1130 151° Southeast 476 548 37,000  Level FlightAware ADS-B (KTLH)
05:48PM 30.0585 -84.0485 151° Southeast 477 549 37,000  Level FlightAware ADS-B (KTLH)
05:48PM 30.0047 -84.0136 151° Southeast 478 550 37,000  Level FlightAware ADS-B (KTLH)
05:49PM 29.8825 -83.9344 151° Southeast 474 545 37,000  Level FlightAware ADS-B (KTLH)
05:50PM 29.7817 -83.8689 151° Southeast 476 548 37,000  Level Miami Center
05:51PM 29.6683 -83.7947 150° Southeast 473 544 37,000  Level Miami Center
05:52PM 29.5319 -83.7078 151° Southeast 472 543 37,000  Level Miami Center
05:53PM 29.4169 -83.6331 150° Southeast 473 544 37,000  Level Miami Center
05:54PM 29.3014 -83.5597 151° Southeast 476 548 37,000  Level Miami Center
05:55PM 29.1856 -83.4858 151° Southeast 477 549 37,000  Level Miami Center
05:56PM 29.0703 -83.4119 151° Southeast 478 550 37,000  Level Miami Center
06:02PM 28.3531 -82.9615 151° Southeast 483 556 37,000  Level FlightAware ADS-B (KEYW)
06:03PM 28.3472 -82.9579 151° Southeast 484 557 37,000  Level FlightAware ADS-B (KMCO)
06:04PM 28.2204 -82.8787 151° Southeast 488 562 37,000  Level FlightAware ADS-B (KMCO)
06:05PM 28.0662 -82.7827 151° Southeast 484 557 37,000  Level FlightAware ADS-B (KEYW)
06:05PM 28.0353 -82.7635 151° Southeast 482 555 37,000  Level FlightAware ADS-B (KMCO)
06:07PM 27.8595 -82.6535 149° Southeast 480 552 37,000  Level FlightAware ADS-B (KMCO)
06:07PM 27.8029 -82.6150 148° Southeast 481 554 37,000  Level FlightAware ADS-B (KEYW)
06:07PM 27.7670 -82.5906 149° Southeast 483 556 37,000  Level FlightAware ADS-B (KMCO)
06:08PM 27.6933 -82.5411 149° Southeast 486 559 37,000  Level FlightAware ADS-B (KMCO)
06:09PM 27.6298 -82.5007 154° Southeast 486 559 37,000  Level FlightAware ADS-B (KMCO)
06:09PM 27.5527 -82.4832 181° South 483 556 37,000  Level FlightAware ADS-B (KEYW)
06:10PM 27.4508 -82.4847 181° South 481 554 37,000  Level FlightAware ADS-B (KEYW)
06:11PM 27.3484 -82.4855 181° South 478 550 37,000  Level FlightAware ADS-B (KEYW)
06:11PM 27.2487 -82.4866 181° South 478 550 37,000  Level FlightAware ADS-B (KEYW)
06:12PM 27.2075 -82.4870 181° South 479 551 37,000  Level FlightAware ADS-B (KEYW)
06:13PM 27.0461 -82.4888 181° South 483 556 37,000  Level FlightAware ADS-B (KEYW)
06:14PM 26.9481 -82.4898 181° South 478 550 37,000 -240 Level FlightAware ADS-B (KEYW)
06:14PM 26.8456 -82.4908 181° South 483 556 36,700 -720 Descending FlightAware ADS-B (KEYW)
06:15PM 26.7466 -82.4920 181° South 475 547 36,000 -960 Descending FlightAware ADS-B (KEYW)
06:16PM 26.7150 -82.4923 181° South 474 545 35,700 -1,080 Descending FlightAware ADS-B (KMCO)
06:16PM 26.6462 -82.4930 181° South 475 547 35,200 -1,080 Descending FlightAware ADS-B (KEYW)
06:17PM 26.5727 -82.4938 181° South 478 550 34,600 -960 Descending FlightAware ADS-B (KMCO)
06:17PM 26.5472 -82.4941 181° South 479 551 34,500 -900 Descending FlightAware ADS-B (KEYW)
06:17PM 26.4843 -82.4947 181° South 479 551 34,000 -1,080 Descending FlightAware ADS-B (KMCO)
06:17PM 26.4463 -82.4951 181° South 480 552 33,700 -1,020 Descending FlightAware ADS-B (KEYW)
06:18PM 26.3458 -82.4960 181° South 482 555 33,000 -960 Descending FlightAware ADS-B (KEYW)
06:19PM 26.2443 -82.4970 181° South 483 556 32,300 -1,020 Descending FlightAware ADS-B (KEYW)
06:20PM 26.1442 -82.4980 181° South 490 564 31,500 -1,080 Descending FlightAware ADS-B (KEYW)
06:20PM 26.0512 -82.4989 181° South 490 564 30,800 -960 Descending FlightAware ADS-B (KEYW)
06:21PM 25.9433 -82.5000 181° South 481 554 30,100 -540 Descending FlightAware ADS-B (KMCO)
06:22PM 25.8377 -82.5009 181° South 486 559 30,000 -120 Descending FlightAware ADS-B (KEYW)
06:23PM 25.7504 -82.5018 181° South 485 558 30,000  Level FlightAware ADS-B (KEYW)
06:23PM 25.6355 -82.5031 181° South 485 558 30,000  Level FlightAware ADS-B (KEYW)
06:24PM 25.5366 -82.5040 181° South 486 559 30,000  Level FlightAware ADS-B (KEYW)
06:25PM 25.4322 -82.5050 181° South 487 560 30,000  Level FlightAware ADS-B (KEYW)
06:26PM 25.3303 -82.5060 181° South 489 563 30,000  Level FlightAware ADS-B (KEYW)
06:27PM 25.2266 -82.5070 181° South 489 563 30,000  Level FlightAware ADS-B (KEYW)
06:27PM 25.1251 -82.5079 181° South 490 564 30,000  Level FlightAware ADS-B (KEYW)
06:28PM 25.0218 -82.5090 181° South 491 565 30,000 -120 Level FlightAware ADS-B (KEYW)
06:29PM 24.9192 -82.5100 181° South 493 567 29,900 -780 Descending FlightAware ADS-B (KEYW)
06:30PM 24.8166 -82.5108 181° South 492 566 28,900 -1,440 Descending FlightAware ADS-B (KEYW)
06:30PM 24.7136 -82.5119 181° South 481 554 27,800 -1,500 Descending FlightAware ADS-B (KEYW)
06:31PM 24.6139 -82.5130 181° South 476 548 26,700 -1,500 Descending FlightAware ADS-B (KEYW)
06:32PM 24.5156 -82.5138 181° South 467 537 25,600 -1,500 Descending FlightAware ADS-B (KEYW)
06:33PM 24.4176 -82.5148 181° South 464 534 24,500 -1,500 Descending FlightAware ADS-B (KEYW)
06:33PM 24.3213 -82.5157 181° South 457 526 23,400 -1,320 Descending FlightAware ADS-B (KEYW)
06:34PM 24.2301 -82.5166 181° South 449 517 22,600 -960 Descending FlightAware ADS-B (KEYW)
06:35PM 24.1334 -82.5174 181° South 447 514 22,000 -420 Descending FlightAware ADS-B (KEYW)
06:36PM 24.0402 -82.5184 181° South 441 507 22,000 -780 Level FlightAware ADS-B (KEYW)
06:36PM 23.9515 -82.5227 186° South 421 484 20,900 -2,220 Descending FlightAware ADS-B (KEYW)
06:37PM 23.8639 -82.5323 186° South 413 475 18,700 -3,000 Descending FlightAware ADS-B (KEYW)
06:38PM 23.7816 -82.5407 186° South 399 459 16,400 -2,880 Descending FlightAware ADS-B (KEYW)
06:39PM 23.6986 -82.5490 186° South 377 434 14,400 -2,820 Descending FlightAware ADS-B (KEYW)
06:39PM 23.6210 -82.5568 186° South 373 429 12,200 -2,220 Descending FlightAware ADS-B (KEYW)
06:40PM 23.5454 -82.5643 186° South 362 417 11,100 -1,380 Descending FlightAware ADS-B (KEYW)
06:41PM 23.4704 -82.5718 186° South 345 397 10,200 -1,320 Descending FlightAware ADS-B (KEYW)
06:42PM 23.4054 -82.5782 186° South 327 376 9,200 -1,320 Descending FlightAware ADS-B (KEYW)
06:42PM 23.3784 -82.5809 186° South 324 373 8,900 -1,320 Descending FlightAware ADS-B (KEYW)
06:42PM 23.3335 -82.5853 186° South 319 367 8,200 -1,380 Descending FlightAware ADS-B (KEYW)
06:43PM 23.3119 -82.5875 186° South 315 362 7,900 -1,500 Descending FlightAware ADS-B (KEYW)
06:43PM 23.2682 -82.5919 186° South 308 354 7,100 -1,440 Descending FlightAware ADS-B (KEYW)
06:43PM 23.2473 -82.5940 186° South 299 344 6,800 -840 Descending FlightAware ADS-B (KEYW)
06:44PM 23.2069 -82.5979 186° South 285 328 6,500 -600 Descending FlightAware ADS-B (KEYW)
06:44PM 23.1891 -82.5997 186° South 285 328 6,400 -840 Descending FlightAware ADS-B (KEYW)
06:45PM 23.1528 -82.6036 187° South 253 291 5,900 -1,080 Descending FlightAware ADS-B (KEYW)
06:45PM 23.1361 -82.6056 187° South 253 291 5,600 -1,140 Descending FlightAware ADS-B (KEYW)
06:45PM 23.1150 -82.6081 187° South 253 291 5,300 -1,020 Descending FlightAware ADS-B (KEYW)
06:48PM 22.9891 -82.4091 124° Southeast  Level Estimated
06:49PM 22.9891 -82.4091 180° South  Level Estimated
06:50PM 22.9891 -82.4091 180° South  Level Estimated
06:51PM 22.9891 -82.4091 180° South  Level Estimated
06:52PM 22.9891 -82.4091 180° South  Level Estimated
06:53PM 22.9891 -82.4091 180° South  Level Estimated
06:54PM 22.9891 -82.4091 180° South  Level Estimated
06:55PM 22.9891 -82.4091 180° South  Level Estimated
06:56PM 22.9891 -82.4091 180° South  Level Estimated
06:57PM 22.9891 -82.4091 180° South  Level Estimated
06:58PM 22.9891 -82.4091 180° South  Level Estimated
06:59PM 22.9891 -82.4091 180° South  Level Estimated
07:00PM 22.9891 -82.4091 180° South  Level Estimated
07:01PM 22.9891 -82.4091 180° South  Level Estimated
07:02PM 22.9891 -82.4091 180° South  Level Estimated
07:03PM 22.9891 -82.4091 180° South  Level Estimated
07:04PM 22.9891 -82.4091 180° South  Level Estimated
07:05PM 22.9891 -82.4091 180° South  Level Estimated
07:06PM 22.9891 -82.4091 180° South  Level Estimated
07:07PM 22.9891 -82.4091 180° South  Level Estimated
07:08PM 22.9891 -82.4091 180° South  Level Estimated